Time,TemperatureF,DewpointF,PressureIn,WindDirection,WindDirectionDegrees,WindSpeedMPH,WindSpeedGustMPH,Humidity,HourlyPrecipIn,Conditions,Clouds,dailyrainin,SoftwareType,DateUTC
2013-04-09 00:01:00,58.5,50.6,29.97,West,273,0.0,16.0,75,0.00,,,0.00,Wunderground v.1.15,2013-04-09 04:01:00,
2013-04-09 00:06:00,58.2,50.3,29.97,West,273,0.0,16.0,75,0.00,,,0.00,Wunderground v.1.15,2013-04-09 04:06:00,
2013-04-09 00:16:00,57.5,50.3,29.97,West,273,0.0,16.0,77,0.00,,,0.00,Wunderground v.1.15,2013-04-09 04:16:00,
2013-04-09 00:21:00,57.1,50.0,29.97,West,273,0.0,16.0,77,0.00,,,0.00,Wunderground v.1.15,2013-04-09 04:21:00,
2013-04-09 00:26:00,56.8,50.0,29.97,West,273,0.0,16.0,78,0.00,,,0.00,Wunderground v.1.15,2013-04-09 04:26:00,
2013-04-09 00:31:00,56.4,50.0,29.97,West,273,0.0,16.0,79,0.00,,,0.00,Wunderground v.1.15,2013-04-09 04:31:00,
2013-04-09 00:36:00,56.2,50.1,29.97,West,273,0.0,16.0,80,0.00,,,0.00,Wunderground v.1.15,2013-04-09 04:36:00,
2013-04-09 00:46:00,55.8,50.1,29.98,West,273,0.0,16.0,81,0.00,,,0.00,Wunderground v.1.15,2013-04-09 04:46:00,
2013-04-09 00:51:00,55.7,50.0,29.98,West,273,0.0,16.0,81,0.00,,,0.00,Wunderground v.1.15,2013-04-09 04:51:00,
2013-04-09 00:57:00,55.4,49.7,29.98,West,273,0.0,16.0,81,0.00,,,0.00,Wunderground v.1.15,2013-04-09 04:57:00,
2013-04-09 01:05:00,55.1,49.7,29.98,West,273,0.0,16.0,82,0.00,,,0.00,Wunderground v.1.15,2013-04-09 05:05:00,
2013-04-09 01:10:00,54.9,49.5,29.99,West,273,0.0,16.0,82,0.00,,,0.00,Wunderground v.1.15,2013-04-09 05:10:00,
2013-04-09 01:20:00,54.6,49.5,29.99,West,273,0.0,16.0,83,0.00,,,0.00,Wunderground v.1.15,2013-04-09 05:20:00,
2013-04-09 01:25:00,54.4,49.3,29.99,West,273,0.0,16.0,83,0.00,,,0.00,Wunderground v.1.15,2013-04-09 05:25:00,
2013-04-09 01:30:00,54.2,49.5,29.98,West,273,0.0,16.0,84,0.00,,,0.00,Wunderground v.1.15,2013-04-09 05:30:00,
2013-04-09 01:35:00,54.1,49.4,29.99,West,273,0.0,16.0,84,0.00,,,0.00,Wunderground v.1.15,2013-04-09 05:35:00,
2013-04-09 01:40:00,53.9,49.2,29.99,West,273,0.0,16.0,84,0.00,,,0.00,Wunderground v.1.15,2013-04-09 05:40:00,
2013-04-09 01:45:00,53.9,49.2,29.99,West,273,0.0,16.0,84,0.00,,,0.00,Wunderground v.1.15,2013-04-09 05:45:00,
2013-04-09 01:55:00,53.6,48.9,29.99,West,273,0.0,16.0,84,0.00,,,0.00,Wunderground v.1.15,2013-04-09 05:55:00,
2013-04-09 02:00:00,53.5,49.1,30.00,West,273,0.0,16.0,85,0.00,,,0.00,Wunderground v.1.15,2013-04-09 06:00:00,
2013-04-09 02:05:00,53.4,49.0,30.00,West,273,0.0,16.0,85,0.00,,,0.00,Wunderground v.1.15,2013-04-09 06:05:00,
2013-04-09 02:10:00,53.2,48.8,30.00,West,273,0.0,16.0,85,0.00,,,0.00,Wunderground v.1.15,2013-04-09 06:10:00,
2013-04-09 02:15:00,52.9,48.5,29.99,West,273,0.0,16.0,85,0.00,,,0.00,Wunderground v.1.15,2013-04-09 06:15:00,
2013-04-09 02:25:00,52.4,48.3,29.99,West,273,0.0,16.0,86,0.00,,,0.00,Wunderground v.1.15,2013-04-09 06:25:00,
2013-04-09 02:30:00,52.2,48.1,29.99,West,273,0.0,16.0,86,0.00,,,0.00,Wunderground v.1.15,2013-04-09 06:30:00,
2013-04-09 02:35:00,52.1,48.3,29.99,West,273,0.0,16.0,87,0.00,,,0.00,Wunderground v.1.15,2013-04-09 06:35:00,
2013-04-09 02:40:00,52.0,48.3,29.99,West,273,0.0,16.0,87,0.00,,,0.00,Wunderground v.1.15,2013-04-09 06:40:00,
2013-04-09 02:45:00,51.9,48.2,29.99,West,273,0.0,16.0,87,0.00,,,0.00,Wunderground v.1.15,2013-04-09 06:45:00,
2013-04-09 02:50:00,51.9,48.5,29.99,West,273,0.0,16.0,88,0.00,,,0.00,Wunderground v.1.15,2013-04-09 06:50:00,
2013-04-09 02:56:00,51.8,48.4,29.99,West,273,0.0,16.0,88,0.00,,,0.00,Wunderground v.1.15,2013-04-09 06:56:00,
2013-04-09 03:01:00,51.7,48.3,29.99,West,273,0.0,16.0,88,0.00,,,0.00,Wunderground v.1.15,2013-04-09 07:01:00,
2013-04-09 03:06:00,51.6,48.2,29.99,West,273,0.0,16.0,88,0.00,,,0.00,Wunderground v.1.15,2013-04-09 07:06:00,
2013-04-09 03:11:00,51.5,48.1,29.99,West,273,0.0,16.0,88,0.00,,,0.00,Wunderground v.1.15,2013-04-09 07:11:00,
2013-04-09 03:16:00,51.3,47.9,29.99,West,273,0.0,16.0,88,0.00,,,0.00,Wunderground v.1.15,2013-04-09 07:16:00,
2013-04-09 03:21:00,51.0,47.6,29.99,West,273,0.0,16.0,88,0.00,,,0.00,Wunderground v.1.15,2013-04-09 07:21:00,
2013-04-09 03:31:00,50.7,47.3,29.99,West,273,0.0,16.0,88,0.00,,,0.00,Wunderground v.1.15,2013-04-09 07:31:00,
2013-04-09 03:36:00,50.5,47.4,29.98,West,273,0.0,16.0,89,0.00,,,0.00,Wunderground v.1.15,2013-04-09 07:36:00,
2013-04-09 03:41:00,50.4,47.3,29.99,West,273,0.0,16.0,89,0.00,,,0.00,Wunderground v.1.15,2013-04-09 07:41:00,
2013-04-09 03:46:00,50.3,47.2,29.99,West,273,0.0,16.0,89,0.00,,,0.00,Wunderground v.1.15,2013-04-09 07:46:00,
2013-04-09 03:51:00,50.2,47.4,29.99,West,273,0.0,16.0,90,0.00,,,0.00,Wunderground v.1.15,2013-04-09 07:51:00,
2013-04-09 04:01:00,50.0,47.2,29.99,West,273,0.0,16.0,90,0.00,,,0.00,Wunderground v.1.15,2013-04-09 08:01:00,
2013-04-09 04:10:00,50.1,47.6,29.99,West,273,0.0,16.0,91,0.00,,,0.00,Wunderground v.1.15,2013-04-09 08:10:00,
2013-04-09 04:15:00,50.2,47.4,29.99,West,273,0.0,16.0,90,0.00,,,0.00,Wunderground v.1.15,2013-04-09 08:15:00,
2013-04-09 04:20:00,50.1,47.3,29.99,West,273,0.0,16.0,90,0.00,,,0.00,Wunderground v.1.15,2013-04-09 08:20:00,
2013-04-09 04:25:00,50.0,47.2,29.99,West,273,0.0,16.0,90,0.00,,,0.00,Wunderground v.1.15,2013-04-09 08:25:00,
2013-04-09 04:35:00,49.6,46.8,29.99,West,273,0.0,16.0,90,0.00,,,0.00,Wunderground v.1.15,2013-04-09 08:35:00,
2013-04-09 04:40:00,49.5,46.7,29.99,West,273,0.0,16.0,90,0.00,,,0.00,Wunderground v.1.15,2013-04-09 08:40:00,
2013-04-09 04:45:00,49.4,46.6,30.00,West,273,0.0,16.0,90,0.00,,,0.00,Wunderground v.1.15,2013-04-09 08:45:00,
2013-04-09 04:50:00,49.3,46.8,30.00,West,273,0.0,16.0,91,0.00,,,0.00,Wunderground v.1.15,2013-04-09 08:50:00,
2013-04-09 04:55:00,49.3,46.8,30.00,West,273,0.0,16.0,91,0.00,,,0.00,Wunderground v.1.15,2013-04-09 08:55:00,
2013-04-09 05:00:00,49.3,46.8,30.00,NNE,19,0.0,16.0,91,0.00,,,0.00,Wunderground v.1.15,2013-04-09 09:00:00,
2013-04-09 05:10:00,49.2,46.7,30.00,NNE,17,0.0,16.0,91,0.00,,,0.00,Wunderground v.1.15,2013-04-09 09:10:00,
2013-04-09 05:15:00,49.1,46.6,30.00,NNE,17,0.0,16.0,91,0.00,,,0.00,Wunderground v.1.15,2013-04-09 09:15:00,
2013-04-09 05:21:00,49.0,46.5,30.00,NNE,17,0.0,16.0,91,0.00,,,0.00,Wunderground v.1.15,2013-04-09 09:21:00,
2013-04-09 05:26:00,48.8,46.3,30.00,NNE,17,0.0,16.0,91,0.00,,,0.00,Wunderground v.1.15,2013-04-09 09:26:00,
2013-04-09 05:31:00,48.7,46.2,30.00,NNE,17,0.0,16.0,91,0.00,,,0.00,Wunderground v.1.15,2013-04-09 09:31:00,
2013-04-09 05:40:00,48.6,46.4,30.01,NNE,17,0.0,16.0,92,0.00,,,0.00,Wunderground v.1.15,2013-04-09 09:40:00,
2013-04-09 05:45:00,48.7,46.5,30.01,NNE,17,0.0,16.0,92,0.00,,,0.00,Wunderground v.1.15,2013-04-09 09:45:00,
2013-04-09 05:51:00,48.7,46.5,30.02,NNE,17,0.0,16.0,92,0.00,,,0.00,Wunderground v.1.15,2013-04-09 09:51:00,
2013-04-09 05:56:00,48.6,46.1,30.02,NNE,17,0.0,16.0,91,0.00,,,0.00,Wunderground v.1.15,2013-04-09 09:56:00,
2013-04-09 06:01:00,48.5,46.0,30.02,NNE,17,0.0,16.0,91,0.00,,,0.00,Wunderground v.1.15,2013-04-09 10:01:00,
2013-04-09 06:06:00,48.3,45.8,30.02,NNE,17,0.0,16.0,91,0.00,,,0.00,Wunderground v.1.15,2013-04-09 10:06:00,
2013-04-09 06:15:00,47.8,45.3,30.02,NNE,17,0.0,16.0,91,0.00,,,0.00,Wunderground v.1.15,2013-04-09 10:15:00,
2013-04-09 06:20:00,47.8,45.6,30.02,NNE,17,0.0,16.0,92,0.00,,,0.00,Wunderground v.1.15,2013-04-09 10:20:00,
2013-04-09 06:25:00,47.9,46.0,30.02,NNE,17,0.0,16.0,93,0.00,,,0.00,Wunderground v.1.15,2013-04-09 10:25:00,
2013-04-09 06:30:00,47.9,45.7,30.03,NNE,17,0.0,16.0,92,0.00,,,0.00,Wunderground v.1.15,2013-04-09 10:30:00,
2013-04-09 06:35:00,47.8,45.6,30.03,NNE,17,0.0,16.0,92,0.00,,,0.00,Wunderground v.1.15,2013-04-09 10:35:00,
2013-04-09 06:40:00,47.6,45.4,30.03,NNE,17,0.0,16.0,92,0.00,,,0.00,Wunderground v.1.15,2013-04-09 10:40:00,
2013-04-09 06:45:00,47.4,45.2,30.03,NNE,17,0.0,16.0,92,0.00,,,0.00,Wunderground v.1.15,2013-04-09 10:45:00,
2013-04-09 06:51:00,47.3,45.1,30.03,NNE,17,0.0,16.0,92,0.00,,,0.00,Wunderground v.1.15,2013-04-09 10:51:00,
2013-04-09 06:55:00,47.3,45.4,30.03,NNE,17,0.0,16.0,93,0.00,,,0.00,Wunderground v.1.15,2013-04-09 10:55:00,
2013-04-09 07:01:00,47.3,45.4,30.03,NNE,17,0.0,16.0,93,0.00,,,0.00,Wunderground v.1.15,2013-04-09 11:01:00,
2013-04-09 07:06:00,47.3,45.4,30.03,NNE,17,0.0,16.0,93,0.00,,,0.00,Wunderground v.1.15,2013-04-09 11:06:00,
2013-04-09 07:11:00,47.1,44.9,30.04,NNE,17,0.0,16.0,92,0.00,,,0.00,Wunderground v.1.15,2013-04-09 11:11:00,
2013-04-09 07:20:00,46.9,45.0,30.05,NNE,17,0.0,16.0,93,0.00,,,0.00,Wunderground v.1.15,2013-04-09 11:20:00,
2013-04-09 07:25:00,46.9,45.0,30.04,NNE,17,0.0,16.0,93,0.00,,,0.00,Wunderground v.1.15,2013-04-09 11:25:00,
2013-04-09 07:30:00,46.9,45.0,30.05,NNE,17,0.0,16.0,93,0.00,,,0.00,Wunderground v.1.15,2013-04-09 11:30:00,
2013-04-09 07:35:00,46.9,45.0,30.05,NNE,17,0.0,16.0,93,0.00,,,0.00,Wunderground v.1.15,2013-04-09 11:35:00,
2013-04-09 07:40:00,46.9,45.0,30.05,NNE,17,0.0,16.0,93,0.00,,,0.00,Wunderground v.1.15,2013-04-09 11:40:00,
2013-04-09 07:45:00,47.1,45.5,30.05,NNE,17,0.0,16.0,94,0.00,,,0.00,Wunderground v.1.15,2013-04-09 11:45:00,
2013-04-09 07:51:00,47.3,45.7,30.05,NNE,17,0.0,16.0,94,0.00,,,0.00,Wunderground v.1.15,2013-04-09 11:51:00,
2013-04-09 08:01:00,47.7,46.1,30.05,NNE,17,0.0,0.0,94,0.00,,,0.00,Wunderground v.1.15,2013-04-09 12:01:00,
2013-04-09 08:10:00,48.0,46.4,30.06,NNE,17,0.0,0.0,94,0.00,,,0.00,Wunderground v.1.15,2013-04-09 12:10:00,
2013-04-09 08:15:00,48.3,46.7,30.06,NNE,17,0.0,0.0,94,0.00,,,0.00,Wunderground v.1.15,2013-04-09 12:15:00,
2013-04-09 08:20:00,48.9,47.5,30.06,NNE,17,0.0,0.0,95,0.00,,,0.00,Wunderground v.1.15,2013-04-09 12:20:00,
2013-04-09 08:26:00,49.6,48.2,30.06,NNE,17,0.0,0.0,95,0.00,,,0.00,Wunderground v.1.15,2013-04-09 12:26:00,
2013-04-09 08:31:00,50.2,48.8,30.07,NNE,17,0.0,0.0,95,0.00,,,0.00,Wunderground v.1.15,2013-04-09 12:31:00,
2013-04-09 08:36:00,51.1,49.7,30.07,NNE,17,0.0,0.0,95,0.00,,,0.00,Wunderground v.1.15,2013-04-09 12:36:00,
2013-04-09 08:41:00,51.9,50.5,30.07,NNE,17,0.0,0.0,95,0.00,,,0.00,Wunderground v.1.15,2013-04-09 12:41:00,
2013-04-09 08:50:00,53.6,51.6,30.07,NNE,17,0.0,0.0,93,0.00,,,0.00,Wunderground v.1.15,2013-04-09 12:50:00,
2013-04-09 08:56:00,54.4,52.1,30.07,NNE,17,0.0,0.0,92,0.00,,,0.00,Wunderground v.1.15,2013-04-09 12:56:00,
2013-04-09 09:02:00,55.4,52.8,30.06,NNE,17,0.0,0.0,91,0.00,,,0.00,Wunderground v.1.15,2013-04-09 13:02:00,
2013-04-09 09:10:00,57.4,53.2,30.07,NNE,17,0.0,0.0,86,0.00,,,0.00,Wunderground v.1.15,2013-04-09 13:10:00,
2013-04-09 09:15:00,58.2,53.7,30.07,NNE,17,0.0,0.0,85,0.00,,,0.00,Wunderground v.1.15,2013-04-09 13:15:00,
2013-04-09 09:21:00,59.1,53.9,30.07,NNE,17,0.0,0.0,83,0.00,,,0.00,Wunderground v.1.15,2013-04-09 13:21:00,
2013-04-09 09:26:00,60.0,54.5,30.07,NNE,17,0.0,0.0,82,0.00,,,0.00,Wunderground v.1.15,2013-04-09 13:26:00,
2013-04-09 09:31:00,60.9,54.7,30.07,NNE,17,0.0,0.0,80,0.00,,,0.00,Wunderground v.1.15,2013-04-09 13:31:00,
2013-04-09 09:40:00,62.8,54.4,30.07,NNE,17,0.0,0.0,74,0.00,,,0.00,Wunderground v.1.15,2013-04-09 13:40:00,
2013-04-09 09:46:00,63.5,54.7,30.07,NNE,17,0.0,0.0,73,0.00,,,0.00,Wunderground v.1.15,2013-04-09 13:46:00,
2013-04-09 09:51:00,64.3,55.5,30.07,NNE,17,0.0,0.0,73,0.00,,,0.00,Wunderground v.1.15,2013-04-09 13:51:00,
2013-04-09 09:56:00,65.0,55.0,30.07,NNE,17,0.0,0.0,70,0.00,,,0.00,Wunderground v.1.15,2013-04-09 13:56:00,
2013-04-09 10:05:00,66.3,55.4,30.07,NNE,17,0.0,0.0,68,0.00,,,0.00,Wunderground v.1.15,2013-04-09 14:05:00,
2013-04-09 10:10:00,67.0,56.1,30.08,NNE,17,0.0,0.0,68,0.00,,,0.00,Wunderground v.1.15,2013-04-09 14:10:00,
2013-04-09 10:16:00,67.6,56.2,30.07,NNE,17,0.0,0.0,67,0.00,,,0.00,Wunderground v.1.15,2013-04-09 14:16:00,
2013-04-09 10:21:00,68.3,56.1,30.08,NNE,17,0.0,0.0,65,0.00,,,0.00,Wunderground v.1.15,2013-04-09 14:21:00,
2013-04-09 10:30:00,68.9,56.2,30.07,SSW,207,0.0,0.0,64,0.00,,,0.00,Wunderground v.1.15,2013-04-09 14:30:00,
2013-04-09 10:35:00,69.3,56.2,30.07,West,279,0.0,0.0,63,0.00,,,0.00,Wunderground v.1.15,2013-04-09 14:35:00,
2013-04-09 10:40:00,69.9,56.7,30.08,West,277,0.0,0.0,63,0.00,,,0.00,Wunderground v.1.15,2013-04-09 14:40:00,
2013-04-09 10:50:00,71.2,56.1,30.08,West,273,0.0,0.0,59,0.00,,,0.00,Wunderground v.1.15,2013-04-09 14:50:00,
2013-04-09 10:55:00,71.7,57.1,30.07,SW,236,0.0,0.0,60,0.00,,,0.00,Wunderground v.1.15,2013-04-09 14:55:00,
2013-04-09 11:06:00,72.5,57.4,30.07,WSW,241,0.0,0.0,59,0.00,,,0.00,Wunderground v.1.15,2013-04-09 15:06:00,
2013-04-09 11:11:00,72.7,56.1,30.07,ENE,64,0.0,0.0,56,0.00,,,0.00,Wunderground v.1.15,2013-04-09 15:11:00,
2013-04-09 11:16:00,73.1,57.4,30.07,ESE,103,0.0,0.0,58,0.00,,,0.00,Wunderground v.1.15,2013-04-09 15:16:00,
2013-04-09 11:21:00,73.5,56.8,30.07,West,271,0.0,0.0,56,0.00,,,0.00,Wunderground v.1.15,2013-04-09 15:21:00,
2013-04-09 11:26:00,73.9,57.2,30.07,West,270,0.0,0.0,56,0.00,,,0.00,Wunderground v.1.15,2013-04-09 15:26:00,
2013-04-09 11:35:00,74.8,58.1,30.06,West,270,0.0,0.0,56,0.00,,,0.00,Wunderground v.1.15,2013-04-09 15:35:00,
2013-04-09 11:40:00,75.2,56.9,30.07,West,270,0.0,0.0,53,0.00,,,0.00,Wunderground v.1.15,2013-04-09 15:40:00,
2013-04-09 11:45:00,75.7,56.3,30.07,West,270,0.0,0.0,51,0.00,,,0.00,Wunderground v.1.15,2013-04-09 15:45:00,
2013-04-09 11:55:00,76.5,57.6,30.06,West,271,1.0,1.0,52,0.00,,,0.00,Wunderground v.1.15,2013-04-09 15:55:00,
2013-04-09 12:01:00,76.6,57.1,30.05,WNW,298,1.0,1.0,51,0.00,,,0.00,Wunderground v.1.15,2013-04-09 16:01:00,
2013-04-09 12:10:00,77.1,56.5,30.06,SSW,204,1.0,4.0,49,0.00,,,0.00,Wunderground v.1.15,2013-04-09 16:10:00,
2013-04-09 12:15:00,77.1,56.5,30.06,SSW,210,2.0,4.0,49,0.00,,,0.00,Wunderground v.1.15,2013-04-09 16:15:00,
2013-04-09 12:20:00,77.3,56.6,30.06,SSE,157,2.0,2.0,49,0.00,,,0.00,Wunderground v.1.15,2013-04-09 16:20:00,
2013-04-09 12:25:00,77.8,54.8,30.05,SW,218,1.0,8.0,45,0.00,,,0.00,Wunderground v.1.15,2013-04-09 16:25:00,
2013-04-09 12:36:00,78.2,55.7,30.05,WSW,242,3.0,3.0,46,0.00,,,0.00,Wunderground v.1.15,2013-04-09 16:36:00,
2013-04-09 12:41:00,78.2,55.1,30.05,West,265,2.0,2.0,45,0.00,,,0.00,Wunderground v.1.15,2013-04-09 16:41:00,
2013-04-09 12:46:00,78.5,54.1,30.05,North,360,1.0,2.0,43,0.00,,,0.00,Wunderground v.1.15,2013-04-09 16:46:00,
2013-04-09 12:55:00,79.5,55.7,30.05,SW,221,1.0,2.0,44,0.00,,,0.00,Wunderground v.1.15,2013-04-09 16:55:00,
2013-04-09 13:06:00,79.4,56.8,30.04,SSW,213,3.0,7.0,46,0.00,,,0.00,Wunderground v.1.15,2013-04-09 17:06:00,
2013-04-09 13:11:00,79.4,55.6,30.04,SSW,201,5.0,7.0,44,0.00,,,0.00,Wunderground v.1.15,2013-04-09 17:11:00,
2013-04-09 13:20:00,79.6,54.5,30.03,WNW,291,2.0,2.0,42,0.00,,,0.00,Wunderground v.1.15,2013-04-09 17:20:00,
2013-04-09 13:25:00,80.0,55.5,30.03,West,277,3.0,3.0,43,0.00,,,0.00,Wunderground v.1.15,2013-04-09 17:25:00,
2013-04-09 13:30:00,80.0,55.5,30.03,WNW,292,4.0,4.0,43,0.00,,,0.00,Wunderground v.1.15,2013-04-09 17:30:00,
2013-04-09 13:36:00,80.2,56.3,30.02,NNW,341,3.0,10.0,44,0.00,,,0.00,Wunderground v.1.15,2013-04-09 17:36:00,
2013-04-09 13:46:00,80.9,53.6,30.03,SW,230,3.0,6.0,39,0.00,,,0.00,Wunderground v.1.15,2013-04-09 17:46:00,
2013-04-09 13:51:00,80.8,54.2,30.03,West,278,3.0,3.0,40,0.00,,,0.00,Wunderground v.1.15,2013-04-09 17:51:00,
2013-04-09 14:01:00,80.8,55.6,30.01,SSW,199,5.0,7.0,42,0.00,,,0.00,Wunderground v.1.15,2013-04-09 18:01:00,
2013-04-09 14:11:00,80.7,55.5,30.01,North,355,3.0,3.0,42,0.00,,,0.00,Wunderground v.1.15,2013-04-09 18:11:00,
2013-04-09 14:20:00,81.6,56.9,30.00,SSE,154,3.0,6.0,43,0.00,,,0.00,Wunderground v.1.15,2013-04-09 18:20:00,
2013-04-09 14:25:00,81.5,56.2,30.00,SSW,196,5.0,6.0,42,0.00,,,0.00,Wunderground v.1.15,2013-04-09 18:25:00,
2013-04-09 14:32:00,81.4,56.8,30.00,SSW,205,6.0,6.0,43,0.00,,,0.00,Wunderground v.1.15,2013-04-09 18:32:00,
2013-04-09 14:41:00,81.9,57.2,30.00,WSW,255,3.0,6.0,43,0.00,,,0.00,Wunderground v.1.15,2013-04-09 18:41:00,
2013-04-09 14:51:00,82.0,56.6,29.99,West,267,3.0,3.0,42,0.00,,,0.00,Wunderground v.1.15,2013-04-09 18:51:00,
2013-04-09 15:01:00,82.4,57.7,29.99,WNW,301,3.0,5.0,43,0.00,,,0.00,Wunderground v.1.15,2013-04-09 19:01:00,
2013-04-09 15:11:00,82.8,57.4,29.98,WNW,294,5.0,8.0,42,0.00,,,0.00,Wunderground v.1.15,2013-04-09 19:11:00,
2013-04-09 15:16:00,82.8,57.4,29.98,WNW,286,4.0,8.0,42,0.00,,,0.00,Wunderground v.1.15,2013-04-09 19:16:00,
2013-04-09 15:21:00,83.0,56.9,29.98,West,279,3.0,4.0,41,0.00,,,0.00,Wunderground v.1.15,2013-04-09 19:21:00,
2013-04-09 15:31:00,82.8,57.4,29.97,West,271,5.0,5.0,42,0.00,,,0.00,Wunderground v.1.15,2013-04-09 19:31:00,
2013-04-09 15:40:00,82.9,57.5,29.97,NW,304,3.0,3.0,42,0.00,,,0.00,Wunderground v.1.15,2013-04-09 19:40:00,
2013-04-09 15:45:00,83.3,57.8,29.97,West,268,5.0,5.0,42,0.00,,,0.00,Wunderground v.1.15,2013-04-09 19:45:00,
2013-04-09 15:50:00,83.2,57.7,29.97,WNW,301,5.0,5.0,42,0.00,,,0.00,Wunderground v.1.15,2013-04-09 19:50:00,
2013-04-09 15:55:00,83.0,57.5,29.97,North,355,4.0,5.0,42,0.00,,,0.00,Wunderground v.1.15,2013-04-09 19:55:00,
2013-04-09 16:01:00,83.1,57.6,29.97,NW,326,2.0,2.0,42,0.00,,,0.00,Wunderground v.1.15,2013-04-09 20:01:00,
2013-04-09 16:10:00,83.3,57.1,29.96,SW,234,3.0,3.0,41,0.00,,,0.00,Wunderground v.1.15,2013-04-09 20:10:00,
2013-04-09 16:15:00,83.4,55.8,29.96,WNW,301,3.0,3.0,39,0.00,,,0.00,Wunderground v.1.15,2013-04-09 20:15:00,
2013-04-09 16:21:00,83.5,55.2,29.96,NW,309,5.0,5.0,38,0.00,,,0.00,Wunderground v.1.15,2013-04-09 20:21:00,
2013-04-09 16:26:00,83.4,55.1,29.96,North,10,5.0,7.0,38,0.00,,,0.00,Wunderground v.1.15,2013-04-09 20:26:00,
2013-04-09 16:31:00,83.6,56.7,29.96,WNW,292,6.0,6.0,40,0.00,,,0.00,Wunderground v.1.15,2013-04-09 20:31:00,
2013-04-09 16:41:00,83.1,54.9,29.95,West,281,6.0,6.0,38,0.00,,,0.00,Wunderground v.1.15,2013-04-09 20:41:00,
2013-04-09 16:50:00,83.1,56.3,29.95,WNW,303,2.0,2.0,40,0.00,,,0.00,Wunderground v.1.15,2013-04-09 20:50:00,
2013-04-09 16:55:00,83.1,55.6,29.95,WSW,252,3.0,5.0,39,0.00,,,0.00,Wunderground v.1.15,2013-04-09 20:55:00,
2013-04-09 17:01:00,82.9,56.1,29.95,NW,304,3.0,3.0,40,0.00,,,0.00,Wunderground v.1.15,2013-04-09 21:01:00,
2013-04-09 17:10:00,83.0,56.9,29.95,SSW,204,4.0,4.0,41,0.00,,,0.00,Wunderground v.1.15,2013-04-09 21:10:00,
2013-04-09 17:15:00,83.2,57.1,29.95,WSW,250,1.0,4.0,41,0.00,,,0.00,Wunderground v.1.15,2013-04-09 21:15:00,
2013-04-09 17:20:00,83.2,57.7,29.95,West,268,0.0,0.0,42,0.00,,,0.00,Wunderground v.1.15,2013-04-09 21:20:00,
2013-04-09 17:25:00,83.2,57.1,29.94,West,278,2.0,2.0,41,0.00,,,0.00,Wunderground v.1.15,2013-04-09 21:25:00,
2013-04-09 17:30:00,83.2,57.7,29.95,WNW,303,4.0,4.0,42,0.00,,,0.00,Wunderground v.1.15,2013-04-09 21:30:00,
2013-04-09 17:35:00,83.1,57.0,29.95,SW,229,4.0,5.0,41,0.00,,,0.00,Wunderground v.1.15,2013-04-09 21:35:00,
2013-04-09 17:40:00,82.9,57.5,29.95,WNW,283,3.0,3.0,42,0.00,,,0.00,Wunderground v.1.15,2013-04-09 21:40:00,
2013-04-09 17:50:00,82.9,57.5,29.95,WNW,293,3.0,6.0,42,0.00,,,0.00,Wunderground v.1.15,2013-04-09 21:50:00,
2013-04-09 17:55:00,82.7,57.9,29.94,NNW,329,3.0,6.0,43,0.00,,,0.00,Wunderground v.1.15,2013-04-09 21:55:00,
2013-04-09 18:00:00,82.6,57.8,29.95,West,279,3.0,3.0,43,0.00,,,0.00,Wunderground v.1.15,2013-04-09 22:00:00,
2013-04-09 18:05:00,82.4,57.7,29.95,NW,304,3.0,7.0,43,0.00,,,0.00,Wunderground v.1.15,2013-04-09 22:05:00,
2013-04-09 18:10:00,82.2,57.5,29.95,WNW,288,6.0,15.0,43,0.00,,,0.00,Wunderground v.1.15,2013-04-09 22:10:00,
2013-04-09 18:20:00,81.7,57.7,29.95,NW,304,4.0,15.0,44,0.00,,,0.00,Wunderground v.1.15,2013-04-09 22:20:00,
2013-04-09 18:25:00,81.5,57.5,29.95,NNW,328,4.0,15.0,44,0.00,,,0.00,Wunderground v.1.15,2013-04-09 22:25:00,
2013-04-09 18:30:00,81.4,57.4,29.95,WNW,294,4.0,15.0,44,0.00,,,0.00,Wunderground v.1.15,2013-04-09 22:30:00,
2013-04-09 18:35:00,81.2,57.2,29.95,West,271,4.0,15.0,44,0.00,,,0.00,Wunderground v.1.15,2013-04-09 22:35:00,
2013-04-09 18:40:00,80.9,56.9,29.95,NNW,339,5.0,5.0,44,0.00,,,0.00,Wunderground v.1.15,2013-04-09 22:40:00,
2013-04-09 18:45:00,80.7,57.4,29.95,WNW,282,6.0,6.0,45,0.00,,,0.00,Wunderground v.1.15,2013-04-09 22:45:00,
2013-04-09 18:56:00,80.4,57.1,29.96,WNW,289,4.0,15.0,45,0.00,,,0.00,Wunderground v.1.15,2013-04-09 22:56:00,
2013-04-09 19:06:00,80.0,57.4,29.95,WSW,240,4.0,15.0,46,0.00,,,0.00,Wunderground v.1.15,2013-04-09 23:06:00,
2013-04-09 19:11:00,79.7,57.1,29.95,WNW,289,4.0,15.0,46,0.00,,,0.00,Wunderground v.1.15,2013-04-09 23:11:00,
2013-04-09 19:16:00,79.5,56.9,29.95,NW,306,4.0,15.0,46,0.00,,,0.00,Wunderground v.1.15,2013-04-09 23:16:00,
2013-04-09 19:26:00,79.0,57.6,29.95,WNW,297,3.0,15.0,48,0.00,,,0.00,Wunderground v.1.15,2013-04-09 23:26:00,
2013-04-09 19:31:00,78.7,56.8,29.95,NNW,338,3.0,3.0,47,0.00,,,0.00,Wunderground v.1.15,2013-04-09 23:31:00,
2013-04-09 19:36:00,78.5,57.2,29.95,West,273,2.0,15.0,48,0.00,,,0.00,Wunderground v.1.15,2013-04-09 23:36:00,
2013-04-09 19:41:00,78.2,57.5,29.95,WNW,285,0.0,15.0,49,0.00,,,0.00,Wunderground v.1.15,2013-04-09 23:41:00,
2013-04-09 19:46:00,77.9,57.2,29.96,WNW,283,1.0,15.0,49,0.00,,,0.00,Wunderground v.1.15,2013-04-09 23:46:00,
2013-04-09 19:51:00,77.6,56.9,29.96,NW,304,1.0,1.0,49,0.00,,,0.00,Wunderground v.1.15,2013-04-09 23:51:00,
2013-04-09 20:01:00,77.0,56.9,29.96,NW,304,0.0,15.0,50,0.00,,,0.00,Wunderground v.1.15,2013-04-10 00:01:00,
2013-04-09 20:06:00,76.7,57.2,29.96,NW,304,0.0,15.0,51,0.00,,,0.00,Wunderground v.1.15,2013-04-10 00:06:00,
2013-04-09 20:11:00,76.3,56.8,29.96,NW,304,0.0,15.0,51,0.00,,,0.00,Wunderground v.1.15,2013-04-10 00:11:00,
2013-04-09 20:16:00,76.0,56.6,29.96,WNW,296,0.0,15.0,51,0.00,,,0.00,Wunderground v.1.15,2013-04-10 00:16:00,
2013-04-09 20:21:00,75.7,56.3,29.97,WNW,290,0.0,15.0,51,0.00,,,0.00,Wunderground v.1.15,2013-04-10 00:21:00,
2013-04-09 20:31:00,75.4,56.0,29.97,WNW,293,0.0,15.0,51,0.00,,,0.00,Wunderground v.1.15,2013-04-10 00:31:00,
2013-04-09 20:36:00,75.3,55.9,29.96,NW,323,0.0,15.0,51,0.00,,,0.00,Wunderground v.1.15,2013-04-10 00:36:00,
2013-04-09 20:41:00,75.2,55.8,29.96,NW,323,0.0,15.0,51,0.00,,,0.00,Wunderground v.1.15,2013-04-10 00:41:00,
2013-04-09 20:46:00,74.9,55.6,29.97,NW,323,0.0,15.0,51,0.00,,,0.00,Wunderground v.1.15,2013-04-10 00:46:00,
2013-04-09 20:51:00,74.7,55.9,29.97,NW,323,0.0,15.0,52,0.00,,,0.00,Wunderground v.1.15,2013-04-10 00:51:00,
2013-04-09 20:56:00,74.5,56.2,29.97,NW,323,0.0,15.0,53,0.00,,,0.00,Wunderground v.1.15,2013-04-10 00:56:00,
2013-04-09 21:06:00,73.5,55.8,29.98,NW,323,0.0,15.0,54,0.00,,,0.00,Wunderground v.1.15,2013-04-10 01:06:00,
2013-04-09 21:11:00,72.9,55.8,29.97,NW,323,0.0,15.0,55,0.00,,,0.00,Wunderground v.1.15,2013-04-10 01:11:00,
2013-04-09 21:16:00,72.1,55.5,29.97,NW,323,0.0,15.0,56,0.00,,,0.00,Wunderground v.1.15,2013-04-10 01:16:00,
2013-04-09 21:21:00,71.4,55.4,29.98,NW,323,0.0,15.0,57,0.00,,,0.00,Wunderground v.1.15,2013-04-10 01:21:00,
2013-04-09 21:26:00,70.8,55.3,29.98,NW,323,0.0,15.0,58,0.00,,,0.00,Wunderground v.1.15,2013-04-10 01:26:00,
2013-04-09 21:35:00,70.1,55.6,29.97,NW,323,0.0,15.0,60,0.00,,,0.00,Wunderground v.1.15,2013-04-10 01:35:00,
2013-04-09 21:40:00,70.1,55.6,29.98,NW,323,0.0,15.0,60,0.00,,,0.00,Wunderground v.1.15,2013-04-10 01:40:00,
2013-04-09 21:45:00,69.9,55.4,29.98,NW,323,0.0,15.0,60,0.00,,,0.00,Wunderground v.1.15,2013-04-10 01:45:00,
2013-04-09 21:51:00,69.6,55.6,29.98,NW,323,0.0,15.0,61,0.00,,,0.00,Wunderground v.1.15,2013-04-10 01:51:00,
2013-04-09 21:56:00,69.0,55.9,29.97,NW,323,0.0,15.0,63,0.00,,,0.00,Wunderground v.1.15,2013-04-10 01:56:00,
2013-04-09 22:01:00,68.4,55.7,29.98,NW,323,0.0,15.0,64,0.00,,,0.00,Wunderground v.1.15,2013-04-10 02:01:00,
2013-04-09 22:11:00,67.4,55.2,29.97,NW,323,0.0,15.0,65,0.00,,,0.00,Wunderground v.1.15,2013-04-10 02:11:00,
2013-04-09 22:16:00,66.8,55.5,29.98,NW,323,0.0,15.0,67,0.00,,,0.00,Wunderground v.1.15,2013-04-10 02:16:00,
2013-04-09 22:25:00,65.9,55.4,29.97,NW,323,0.0,15.0,69,0.00,,,0.00,Wunderground v.1.15,2013-04-10 02:25:00,
2013-04-09 22:30:00,65.6,55.2,29.97,NW,323,0.0,15.0,69,0.00,,,0.00,Wunderground v.1.15,2013-04-10 02:30:00,
2013-04-09 22:35:00,65.4,55.4,29.96,NW,323,0.0,15.0,70,0.00,,,0.00,Wunderground v.1.15,2013-04-10 02:35:00,
2013-04-09 22:45:00,65.0,55.4,29.96,NW,323,0.0,15.0,71,0.00,,,0.00,Wunderground v.1.15,2013-04-10 02:45:00,
2013-04-09 22:50:00,64.8,55.6,29.96,NW,323,0.0,15.0,72,0.00,,,0.00,Wunderground v.1.15,2013-04-10 02:50:00,
2013-04-09 22:55:00,64.6,55.7,29.96,NW,323,0.0,15.0,73,0.00,,,0.00,Wunderground v.1.15,2013-04-10 02:55:00,
2013-04-09 23:00:00,64.4,55.9,29.96,NW,323,0.0,15.0,74,0.00,,,0.00,Wunderground v.1.15,2013-04-10 03:00:00,
2013-04-09 23:05:00,64.2,55.7,29.96,NW,323,0.0,15.0,74,0.00,,,0.00,Wunderground v.1.15,2013-04-10 03:05:00,
2013-04-09 23:15:00,63.8,55.4,29.96,NW,323,0.0,15.0,74,0.00,,,0.00,Wunderground v.1.15,2013-04-10 03:15:00,
2013-04-09 23:20:00,63.5,55.4,29.96,NW,323,0.0,15.0,75,0.00,,,0.00,Wunderground v.1.15,2013-04-10 03:20:00,
2013-04-09 23:25:00,63.3,55.2,29.96,NW,323,0.0,15.0,75,0.00,,,0.00,Wunderground v.1.15,2013-04-10 03:25:00,
2013-04-09 23:30:00,63.1,55.0,29.96,NW,323,0.0,15.0,75,0.00,,,0.00,Wunderground v.1.15,2013-04-10 03:30:00,
2013-04-09 23:35:00,62.8,55.1,29.96,NW,323,0.0,15.0,76,0.00,,,0.00,Wunderground v.1.15,2013-04-10 03:35:00,
2013-04-09 23:40:00,62.6,54.9,29.96,NW,323,0.0,15.0,76,0.00,,,0.00,Wunderground v.1.15,2013-04-10 03:40:00,
2013-04-09 23:46:00,62.4,55.1,29.96,NW,323,0.0,15.0,77,0.00,,,0.00,Wunderground v.1.15,2013-04-10 03:46:00,
2013-04-09 23:55:00,61.9,54.6,29.96,NW,323,0.0,15.0,77,0.00,,,0.00,Wunderground v.1.15,2013-04-10 03:55:00,